STARLINK-1552, 46076

Orbit data source: Space-Track

STARLINK-1552, 46076 is a payload satellite owned by SpaceX/Seattle (US) in LEO that was launched on Fri, 07 Aug 2020 UTC via an FALCON 9 launch vehicle from the Air Force Eastern Test Range (AFETR). Payload-class satellites include a variety of spacecraft equipped with specific instruments for various scientific and technological missions. These include communications satellites like Starlink; space stations such as the ISS; scientific satellites like the Hubble; Earth observation satellites from companies like Planet Labs, Umbra, and HawkEye 360; GPS; miniature CubeSats for education and research; and military/defense satellites.

Loading next visibility...
Identifier
46076, 2020-055BB
Orbit
LEO
Country
Flag of USUS
Related business
Manufacturer
SpaceX/Seattle
Mission
Operational Commercial Communications
Bus & Motor
STARLINK, Unknown motor
Mass
260 kg wet, ~248 kg dry
Launch date (UTC)
2020-08-07 (6 years ago)
Launch vehicle
FALCON 9
Launch site
Air Force Eastern Test Range (AFETR)
Object type
Payload
Rocket body
Debris
Shape & HBR
Box + 1 Pan, 10.1 m
Radar Cross Section
13.562 m², Large (>1 m²)

Expand to show TLE details & history
Last TLE update: 7 hours ago

TLE from 7 hours ago
0 STARLINK-1552
1 46076U 20055BB  26125.71053258  .00004438  00000-0  16188-3 0  9998
2 46076  53.1589 196.1201 0001471  83.2389 276.8779 15.30197953317956
Epoch: 2026-05-05T17:03Z
TLE epoch observation values (Epoch: 2026-05-05T17:03:10.014Z)
Latitude
-0.00005°
Longitude
76.74687°
Altitude
476 km
Speed
7.629 km/s
True Right ascension
13h 04m 28s
True Declination
0° 00' 00"
Sunlit
Object was in full shadow at epoch
Visualization orbit readout
Latitude
Unknown
Longitude
Unknown
Altitude
Unknown
Speed
Unknown
Apparent Right ascension
Unknown
Apparent Declination
Unknown
Sunlit
N/A
Visualization observer readout
Local Sidereal Time
08:06:16
Azimuth
Unknown
Elevation
Unknown
Doppler factor
Unknown
Orbital elements
Apogee altitude
476.486 km
Perigee altitude
474.47 km
Semi-major axis
6,853.615 km
Eccentricity
0.00015
Inclination
53.1589°
RAAN
196.1201°
Arg. of periapsis
83.2389°
True anomaly
276.86116°
Mean anomaly
276.8779°
Eccentric anomaly
276.86953°
Mean motion
3.82528 °/min
Orbital period
94.11 mins
BSTAR
0.00016188
Loading maneuver chart data...
Computing Atmospheric mass density...
Loading historical data...
Loading historical data...
Loading historical data...
Loading historical data...
Loading historical data...
Loading historical data...
Loading historical data...

Documentation

Showing up to 5 results
|